Stations météo

réclame
Mon MeteoGroup
Elsenborn, Belgique (6496): Température de l'air & dewpoint: 13.12.2018 08:00:00 - 19.12.2018 08:00:00 (CET)Elsenborn, Belgique (6496): Vitesse du vent & gusts: 13.12.2018 08:00:00 - 19.12.2018 08:00:00 (CET)Elsenborn, Belgique (6496): Direction du vent: 13.12.2018 08:00:00 - 19.12.2018 08:00:00 (CET)Elsenborn, Belgique (6496): reduced air pressure: 13.12.2018 08:00:00 - 19.12.2018 08:00:00 (CET)Elsenborn, Belgique (6496): visibility: 13.12.2018 08:00:00 - 19.12.2018 08:00:00 (CET)
Date & Time tt [°C] td [°C] ff [km/h] ff [knt] fx [km/h] fx [knt] dd ppp [hPa] vv [km]
19.12.2018 08:00:00 4,6 4,3 7 4 22 12 SSW 1012,8 5
19.12.2018 07:00:00 4,4 4,1 7 4 - - N 1012,7 2,4
19.12.2018 06:00:00 3,7 3,5 4 2 25 14 N 1012,2 3,5
19.12.2018 05:00:00 3,4 2,3 9 5 29 16 S 1012,0 10
19.12.2018 04:00:00 3,0 0,9 7 4 - - S 1012,3 20
19.12.2018 03:00:00 2,5 0,0 7 4 18 10 S 1013,2 20
19.12.2018 02:00:00 2,4 -0,4 7 4 22 12 S 1013,2 20
19.12.2018 01:00:00 2,4 -0,6 7 4 - - S 1013,7 20
19.12.2018 00:00:00 2,7 -1,2 7 4 29 16 S 1013,7 20
18.12.2018 23:00:00 3,1 -1,5 11 6 25 14 S 1013,8 20
18.12.2018 22:00:00 3,5 -1,8 7 4 - - S 1014,6 20
18.12.2018 21:00:00 3,2 -1,7 11 6 25 14 S 1015,5 20
18.12.2018 20:00:00 2,0 -0,7 4 2 22 12 N 1016,5 20
18.12.2018 19:00:00 2,2 -0,3 7 4 - - SSE 1017,0 20
18.12.2018 18:00:00 2,3 0,1 7 4 22 12 SSE 1018,2 20
18.12.2018 17:00:00 2,4 0,8 7 4 18 10 SSE 1018,5 20
18.12.2018 16:00:00 2,5 1,1 4 2 - - N 1019,1 20
18.12.2018 15:00:00 2,7 1,1 7 4 22 12 N 1020,0 20
18.12.2018 14:00:00 3,0 1,9 7 4 18 10 SSE 1020,8 17
18.12.2018 13:00:00 2,2 2,1 7 4 - - S 1022,1 2,1
18.12.2018 12:00:00 2,9 2,0 4 2 14 8 N 1022,8 19
18.12.2018 11:00:00 2,9 2,5 4 2 18 10 N 1023,8 14
18.12.2018 10:00:00 2,5 2,5 4 2 - - N 1024,5 5
18.12.2018 09:00:00 2,5 2,4 4 2 14 8 N 1024,9 2,4
18.12.2018 08:00:00 2,7 2,4 7 4 14 8 SSE 1025,0 3,5
18.12.2018 07:00:00 2,7 2,6 5 3 - - S 1025,5 6
18.12.2018 06:00:00 2,4 2,3 7 4 18 10 N 1025,4 6
18.12.2018 05:00:00 2,4 2,2 4 2 18 10 N 1025,7 7
18.12.2018 04:00:00 2,5 2,0 4 2 - - N 1026,2 16
18.12.2018 03:00:00 2,5 2,0 4 2 18 10 - 1026,5 14
18.12.2018 02:00:00 2,4 1,9 4 2 22 12 N 1026,5 14
18.12.2018 01:00:00 2,5 1,9 4 2 - - N 1027,0 15
18.12.2018 00:00:00 2,9 2,5 4 2 14 8 N 1027,2 7
17.12.2018 23:00:00 3,0 2,5 4 2 14 8 N 1026,9 4,9
17.12.2018 22:00:00 2,9 2,5 4 2 - - N 1026,5 5
17.12.2018 21:00:00 3,0 2,7 4 2 14 8 N 1026,0 7
17.12.2018 20:00:00 3,0 2,7 7 4 22 12 SW 1025,5 11
17.12.2018 19:00:00 3,0 2,7 7 4 - - WSW 1024,9 10
17.12.2018 18:00:00 3,2 2,6 7 4 18 10 N 1024,2 17
17.12.2018 17:00:00 3,0 2,4 7 4 22 12 WSW 1023,7 20
17.12.2018 16:00:00 3,2 2,6 7 4 - - W 1022,8 17
17.12.2018 15:00:00 3,2 2,6 7 4 22 12 WSW 1021,8 19
17.12.2018 14:00:00 3,2 2,5 7 4 22 12 WSW 1021,1 20
17.12.2018 13:00:00 2,9 2,4 7 4 - - WSW 1020,5 18
17.12.2018 12:00:00 2,7 2,4 7 4 25 14 WSW 1020,3 15
17.12.2018 11:00:00 2,6 2,4 7 4 22 12 WSW 1020,1 11
17.12.2018 10:00:00 2,3 2,3 4 2 - - N 1019,2 7
17.12.2018 09:00:00 1,9 1,9 4 2 14 8 N 1018,7 1,8
17.12.2018 08:00:00 1,5 1,4 4 2 14 8 N 1017,7 6
17.12.2018 07:00:00 1,3 1,3 7 4 - - - 1016,8 6
17.12.2018 06:00:00 1,3 1,3 4 2 14 8 N 1016,3 6
17.12.2018 05:00:00 1,5 1,5 4 2 11 6 - 1015,7 1,1
17.12.2018 04:00:00 1,5 1,5 4 2 - - N 1015,7 0,4
17.12.2018 03:00:00 1,2 1,2 4 2 18 10 N 1015,7 0,3
17.12.2018 02:00:00 1,3 1,3 4 2 11 6 N 1015,2 0,5
17.12.2018 01:00:00 1,2 1,2 4 2 - - N 1015,2 0,4
17.12.2018 00:00:00 1,2 1,2 4 2 11 6 - 1015,3 0,9
16.12.2018 23:00:00 1,0 1,0 4 2 11 6 N 1015,2 0,6
16.12.2018 22:00:00 0,8 0,7 4 2 - - N 1014,7 0,3
16.12.2018 21:00:00 0,5 0,4 4 2 11 6 N 1014,7 0,3
16.12.2018 20:00:00 0,3 0,3 4 2 7 4 N 1014,3 0,2
16.12.2018 19:00:00 0,1 0,1 4 2 - - N 1014,2 0,4
16.12.2018 18:00:00 -0,1 -0,1 4 2 11 6 N 1013,8 0,2
16.12.2018 17:00:00 0,0 0,0 4 2 7 4 N 1013,2 0,3
16.12.2018 16:00:00 0,0 0,0 4 2 - - N 1013,1 0,4
16.12.2018 15:00:00 -0,1 -0,1 4 2 11 6 N 1012,7 1,0
16.12.2018 14:00:00 -0,3 -0,5 2 1 14 8 - 1012,7 0,9
16.12.2018 13:00:00 -0,7 -1,1 4 2 - - N 1012,6 0,2
16.12.2018 12:00:00 -1,3 -1,3 4 2 11 6 N 1012,8 0,5
16.12.2018 11:00:00 -2,2 -2,5 4 2 14 8 N 1013,2 0,3
16.12.2018 10:00:00 -2,8 -2,9 4 2 - - N 1013,0 1,1
16.12.2018 09:00:00 -3,4 -3,4 4 2 14 8 N 1012,8 1,3
16.12.2018 08:00:00 -3,6 -3,9 4 2 14 8 N 1012,6 1,9
16.12.2018 07:00:00 -3,6 -4,0 4 2 - - N 1012,2 2,5
16.12.2018 06:00:00 -3,4 -4,0 4 2 18 10 - 1012,2 3,0
16.12.2018 05:00:00 -3,4 -4,1 4 2 14 8 N 1012,2 2,0
16.12.2018 04:00:00 -3,0 -3,7 4 2 - - - 1012,2 0,7
16.12.2018 03:00:00 -3,5 -4,3 5 3 22 12 S 1013,5 0,5
16.12.2018 02:00:00 -4,0 -5,0 9 5 22 12 S 1014,2 1,2
16.12.2018 01:00:00 -4,3 -5,6 8 4 - - S 1015,2 1,2
16.12.2018 00:00:00 -3,7 -7,1 11 6 32 18 S 1014,2 12
15.12.2018 23:00:00 -3,8 -7,0 11 6 29 16 S 1015,5 13
15.12.2018 22:00:00 -4,2 -7,0 11 6 - - S 1016,8 11
15.12.2018 21:00:00 -4,7 -7,0 11 6 29 16 SSE 1018,1 10
15.12.2018 20:00:00 -4,7 -7,1 7 4 25 14 SSE 1018,7 11
15.12.2018 19:00:00 -4,6 -7,1 7 4 - - SSE 1019,8 12
15.12.2018 18:00:00 -4,6 -7,2 7 4 18 10 SSE 1021,2 13
15.12.2018 17:00:00 -4,3 -7,3 8 4 18 10 SSE 1021,7 10
15.12.2018 16:00:00 -3,9 -7,2 7 4 - - SSE 1022,2 15
15.12.2018 15:00:00 -3,2 -7,2 4 2 22 12 N 1023,2 16
15.12.2018 14:00:00 -3,2 -7,3 7 4 22 12 SSE 1023,7 18
15.12.2018 13:00:00 -3,4 -7,4 7 4 - - SSE 1024,5 16
15.12.2018 12:00:00 -3,6 -7,6 7 4 22 12 SSE 1025,0 16
15.12.2018 11:00:00 -3,8 -7,5 4 2 18 10 N 1026,0 14
15.12.2018 10:00:00 -4,1 -7,7 4 2 - - N 1026,2 14
15.12.2018 09:00:00 -4,2 -7,8 4 2 18 10 N 1026,2 16
15.12.2018 08:00:00 -4,3 -8,1 4 2 14 8 N 1026,0 18
15.12.2018 07:00:00 -4,4 -8,1 4 2 - - N 1026,2 19
15.12.2018 06:00:00 -4,4 -8,1 4 2 11 6 N 1026,4 19
15.12.2018 05:00:00 -4,3 -8,0 4 2 7 4 N 1026,4 19
15.12.2018 04:00:00 -4,2 -7,9 4 2 - - N 1026,5 18
15.12.2018 03:00:00 -4,0 -8,0 4 2 7 4 N 1027,0 19
15.12.2018 02:00:00 -3,9 -7,8 4 2 7 4 N 1026,7 20
15.12.2018 01:00:00 -3,9 -7,7 4 2 - - N 1026,2 19
15.12.2018 00:00:00 -3,8 -7,7 4 2 18 10 N 1025,9 19
14.12.2018 23:00:00 -3,7 -7,6 4 2 14 8 N 1025,5 20
14.12.2018 22:00:00 -3,6 -7,4 4 2 - - N 1025,9 20
14.12.2018 21:00:00 -3,6 -7,1 4 2 11 6 N 1026,2 20
14.12.2018 20:00:00 -3,5 -7,3 4 2 14 8 N 1025,7 20
14.12.2018 19:00:00 -3,6 -7,2 4 2 - - N 1025,5 20
14.12.2018 18:00:00 -3,5 -7,4 4 2 14 8 N 1025,0 20
14.12.2018 17:00:00 -3,5 -7,3 4 2 14 8 - 1024,5 20
14.12.2018 16:00:00 -3,4 -7,4 4 2 - - N 1024,0 20
14.12.2018 15:00:00 -3,2 -6,9 4 2 14 8 N 1023,3 20
14.12.2018 14:00:00 -3,0 -6,9 4 2 14 8 N 1022,7 20
14.12.2018 13:00:00 -3,0 -6,1 7 4 - - ENE 1022,7 20
14.12.2018 12:00:00 -3,1 -5,3 4 2 14 8 N 1023,0 7
14.12.2018 11:00:00 -3,3 -5,5 7 4 11 6 E 1023,2 8
14.12.2018 10:00:00 -3,3 -6,0 7 4 - - ENE 1023,1 6
14.12.2018 09:00:00 -3,3 -6,4 4 2 18 10 N 1022,3 19
14.12.2018 08:00:00 -3,4 -6,5 7 4 25 14 E 1021,5 18
14.12.2018 07:00:00 -3,5 -6,8 11 6 - - E 1021,1 19
14.12.2018 06:00:00 -3,5 -6,8 7 4 22 12 E 1021,1 19
14.12.2018 05:00:00 -3,6 -6,8 7 4 25 14 E 1020,7 20
14.12.2018 04:00:00 -3,6 -6,8 11 6 - - E 1020,7 20
14.12.2018 03:00:00 -3,4 -6,7 11 6 25 14 E 1021,1 20
14.12.2018 02:00:00 -3,4 -6,7 7 4 25 14 ENE 1020,8 20
14.12.2018 01:00:00 -3,4 -6,9 7 4 - - E 1020,8 20
14.12.2018 00:00:00 -3,3 -6,9 7 4 22 12 E 1021,0 20
13.12.2018 23:00:00 -3,1 -6,8 7 4 18 10 E 1020,7 20
13.12.2018 22:00:00 -3,1 -6,5 7 4 - - E 1020,7 20
13.12.2018 21:00:00 -3,0 -6,3 11 6 22 12 E 1020,2 20
13.12.2018 20:00:00 -3,2 -6,9 11 6 25 14 E 1020,2 20
13.12.2018 19:00:00 -3,4 -6,7 11 6 - - ENE 1020,0 20
13.12.2018 18:00:00 -3,6 -5,5 7 4 14 8 ENE 1020,0 16
13.12.2018 17:00:00 -3,2 -5,5 7 4 14 8 E 1020,0 19
13.12.2018 16:00:00 -2,4 -5,5 9 5 - - E 1019,6 10
13.12.2018 15:00:00 -1,6 -6,0 14 8 25 14 E 1018,8 20
13.12.2018 14:00:00 -1,9 -5,3 11 6 36 19 E 1019,2 19
13.12.2018 13:00:00 -1,5 -6,0 18 10 - - E 1019,3 20
13.12.2018 12:00:00 -1,9 -5,2 16 9 36 19 E 1019,8 10
13.12.2018 11:00:00 -2,1 -5,0 14 8 29 16 E 1020,5 20
13.12.2018 10:00:00 -2,5 -4,0 11 6 - - E 1020,6 20
13.12.2018 09:00:00 -2,7 -3,9 7 4 18 10 E 1020,7 20
13.12.2018 08:00:00 -2,1 -3,4 11 6 22 12 E 1020,3 20

tt = Température de l'air
td = dewpoint
ff = Vitesse du vent
fx = gusts
dd = Direction du vent
ppp = reduced air pressure
vv = visibility

stations d'obs. à proximité